Weather History for KVYS - September, 2013

Change the Weather History Date:

Saturday, September 28, 2013

  Actual Average Record
Temperature  
Mean Temperature 70 °F -  
Max Temperature 82 °F 73 °F 88 °F (1990)
Min Temperature 57 °F 47 °F 31 °F (1984)
Cooling Degree Days 4    
Growing Degree Days 20 (Base 50)    
Moisture  
Dew Point 57 °F    
Average Humidity 68    
Maximum Humidity 95    
Minimum Humidity 43    
Precipitation  
Precipitation 0.42 in - - ()
Sea Level Pressure  
Sea Level Pressure 29.99 in    
Wind  
Wind Speed 11 mph (South)    
Max Wind Speed 26 mph    
Max Gust Speed 37 mph    
Visibility 9 miles    
Events Rain    
Averages and records for this station are not official NWS values.
T = Trace of Precipitation, MM = Missing Value Source: NWS Daily Summary

Daily Weather History Graph

Daily Weather History Graph

Search for Another Location

Airport or City:

Trip Planner

Search our weather history database for the weather conditions in past years. The results will help you decide how hot, cold, wet, or windy it might be!

Date:

Astronomy

Sep. 28, 2013 Rise Set
Actual Time 6:50 AM CDT 6:43 PM CDT
Civil Twilight 6:22 AM CDT 7:10 PM CDT
Nautical Twilight 5:50 AM CDT 7:42 PM CDT
Astronomical Twilight 5:18 AM CDT 8:15 PM CDT
Moon 12:34 AM CDT (9/28) 3:05 PM CDT (9/28)
Length of Visible Light 12h 47m
Length of Day
11h 52m
Waning Crescent, 36% of the Moon is Illuminated
Sep 28
Waning Crescent
Oct 4
New
Oct 11
First Quarter
Oct 18
Full
Oct 26
Last Quarter

Hourly Weather History & Observations

Time (CDT) Temp. Heat Index Dew Point Humidity Pressure Visibility Wind Dir Wind Speed Gust Speed Precip Events Conditions
12:15 AM 62.2 °F - 50.9 °F 66% 30.05 in 10.0 mi SSE 8.1 mph - N/A   Clear
12:35 AM 61.7 °F - 50.9 °F 68% 30.05 in 10.0 mi SE 9.2 mph - N/A   Clear
12:55 AM 61.7 °F - 51.1 °F 68% 30.05 in 10.0 mi SSE 9.2 mph - N/A   Clear
1:15 AM 61.2 °F - 51.1 °F 69% 30.05 in 10.0 mi SSE 9.2 mph - N/A   Clear
1:35 AM 61.5 °F - 51.3 °F 69% 30.05 in 10.0 mi SSE 10.4 mph - N/A   Clear
1:55 AM 61.2 °F - 51.3 °F 70% 30.05 in 10.0 mi SSE 10.4 mph - N/A   Clear
2:15 AM 60.8 °F - 51.3 °F 71% 30.05 in 10.0 mi SSE 10.4 mph 16.1 mph N/A   Clear
2:35 AM 61.0 °F - 51.4 °F 71% 30.05 in 10.0 mi SSE 10.4 mph - N/A   Clear
2:55 AM 61.2 °F - 51.6 °F 71% 30.04 in 10.0 mi SSE 11.5 mph - N/A   Clear
3:15 AM 60.3 °F - 51.3 °F 72% 30.04 in 10.0 mi SE 10.4 mph - N/A   Clear
3:35 AM 60.3 °F - 51.4 °F 73% 30.04 in 10.0 mi SSE 11.5 mph - N/A   Clear
3:55 AM 59.9 °F - 51.8 °F 75% 30.04 in 10.0 mi SSE 9.2 mph - N/A   Clear
4:15 AM 59.9 °F - 51.8 °F 75% 30.04 in 10.0 mi SSE 11.5 mph - N/A   Clear
4:35 AM 60.1 °F - 51.4 °F 73% 30.03 in 10.0 mi SSE 11.5 mph - N/A   Clear
4:55 AM 59.2 °F - 51.4 °F 75% 30.03 in 10.0 mi SSE 10.4 mph - N/A   Clear
5:15 AM 59.0 °F - 51.8 °F 77% 30.03 in 10.0 mi SSE 10.4 mph - N/A   Clear
5:35 AM 58.6 °F - 51.8 °F 78% 30.04 in 10.0 mi SSE 10.4 mph 16.1 mph N/A   Clear
5:55 AM 58.3 °F - 52.0 °F 80% 30.04 in 10.0 mi SSE 8.1 mph - N/A   Clear
6:15 AM 57.7 °F - 51.8 °F 81% 30.05 in 10.0 mi SSE 6.9 mph - N/A   Clear
6:35 AM 57.4 °F - 51.8 °F 82% 30.05 in 10.0 mi South 5.8 mph - N/A   Clear
6:55 AM 57.4 °F - 52.0 °F 82% 30.06 in 10.0 mi SSE 5.8 mph - N/A   Clear
7:15 AM 58.1 °F - 52.2 °F 81% 30.06 in 10.0 mi SSE 3.5 mph - N/A   Clear
7:35 AM 59.5 °F - 53.1 °F 79% 30.05 in 10.0 mi SSE 6.9 mph - N/A   Clear
7:55 AM 60.3 °F - 52.9 °F 77% 30.06 in 10.0 mi SSE 9.2 mph - N/A   Mostly Cloudy
8:15 AM 61.3 °F - 53.4 °F 75% 30.05 in 10.0 mi SSE 8.1 mph - N/A   Mostly Cloudy
8:35 AM 63.1 °F - 54.1 °F 72% 30.05 in 10.0 mi SSE 12.7 mph 17.3 mph N/A   Scattered Clouds
8:55 AM 64.8 °F - 54.7 °F 70% 30.05 in 10.0 mi SSE 10.4 mph - N/A   Scattered Clouds
9:15 AM 66.7 °F - 55.6 °F 67% 30.04 in 10.0 mi SSE 10.4 mph - N/A   Scattered Clouds
9:35 AM 68.4 °F - 56.5 °F 66% 30.04 in 10.0 mi SSE 11.5 mph - N/A   Scattered Clouds
9:55 AM 69.8 °F - 57.4 °F 65% 30.04 in 10.0 mi South 10.4 mph - N/A   Clear
10:15 AM 71.4 °F - 58.5 °F 64% 30.03 in 10.0 mi South 12.7 mph 17.3 mph N/A   Clear
10:35 AM 74.7 °F - 60.1 °F 60% 30.02 in 10.0 mi South 15.0 mph - N/A   Clear
10:55 AM 76.3 °F - 60.6 °F 58% 30.01 in 10.0 mi South 12.7 mph 19.6 mph N/A   Clear
11:15 AM 77.9 °F - 61.0 °F 56% 30.00 in 10.0 mi South 17.3 mph 21.9 mph N/A   Clear
11:35 AM 79.0 °F - 61.0 °F 54% 29.99 in 10.0 mi South 16.1 mph - N/A   Scattered Clouds
11:55 AM 80.4 °F 81.2 °F 60.3 °F 50% 29.98 in 10.0 mi South 18.4 mph 24.2 mph N/A   Scattered Clouds
12:15 PM 80.2 °F 80.9 °F 59.5 °F 49% 29.97 in 10.0 mi South 21.9 mph 32.2 mph N/A   Scattered Clouds
12:35 PM 80.4 °F 80.8 °F 58.1 °F 46% 29.96 in 10.0 mi South 19.6 mph 26.5 mph N/A   Scattered Clouds
12:55 PM 81.1 °F 81.2 °F 57.4 °F 44% 29.96 in 10.0 mi South 20.7 mph 29.9 mph N/A   Mostly Cloudy
1:15 PM 81.5 °F 81.5 °F 57.7 °F 44% 29.95 in 10.0 mi SSW 16.1 mph 29.9 mph N/A   Mostly Cloudy
1:35 PM 81.5 °F 81.4 °F 56.8 °F 43% 29.95 in 10.0 mi SW 26.5 mph 36.8 mph N/A   Mostly Cloudy
1:55 PM 81.7 °F 81.6 °F 57.6 °F 44% 29.95 in 10.0 mi SSW 21.9 mph 28.8 mph N/A   Mostly Cloudy
2:15 PM 82.6 °F 82.3 °F 57.7 °F 43% 29.94 in 10.0 mi SW 25.3 mph 31.1 mph N/A   Scattered Clouds
2:35 PM 81.5 °F 81.5 °F 57.7 °F 44% 29.93 in 10.0 mi SSW 20.7 mph 28.8 mph N/A   Scattered Clouds
2:55 PM 81.5 °F 81.5 °F 57.6 °F 44% 29.93 in 10.0 mi SSW 21.9 mph 31.1 mph N/A   Scattered Clouds
3:15 PM 81.0 °F 81.2 °F 58.3 °F 46% 29.93 in 10.0 mi SSW 18.4 mph 31.1 mph N/A   Overcast
3:35 PM 80.6 °F 80.9 °F 58.3 °F 46% 29.92 in 10.0 mi SSW 18.4 mph 25.3 mph N/A   Overcast
3:55 PM 80.2 °F 80.7 °F 58.1 °F 47% 29.91 in 10.0 mi SSW 17.3 mph 23.0 mph N/A   Overcast
4:15 PM 80.2 °F 80.8 °F 59.0 °F 48% 29.91 in 10.0 mi South 18.4 mph 23.0 mph N/A   Overcast
4:35 PM 80.2 °F 80.8 °F 59.0 °F 48% 29.90 in 10.0 mi South 17.3 mph - N/A   Overcast
4:55 PM 80.2 °F 80.8 °F 59.2 °F 48% 29.90 in 10.0 mi South 12.7 mph - N/A   Overcast
5:15 PM 80.2 °F 81.0 °F 59.9 °F 50% 29.90 in 10.0 mi SSW 11.5 mph - N/A   Overcast
5:35 PM 77.9 °F - 60.4 °F 55% 29.91 in 10.0 mi SSW 13.8 mph - N/A   Light Drizzle
5:55 PM 78.1 °F - 59.7 °F 53% 29.91 in 10.0 mi SW 11.5 mph - N/A   Overcast
6:15 PM 77.9 °F - 60.1 °F 54% 29.91 in 10.0 mi SW 9.2 mph - N/A   Overcast
6:35 PM 76.1 °F - 61.0 °F 59% 29.92 in 10.0 mi SW 6.9 mph - N/A   Overcast
6:55 PM 75.7 °F - 61.7 °F 62% 29.92 in 10.0 mi WSW 11.5 mph - N/A   Overcast
7:15 PM 75.2 °F - 62.2 °F 64% 29.92 in 10.0 mi WSW 10.4 mph - N/A   Overcast
7:35 PM 74.3 °F - 63.0 °F 68% 29.93 in 10.0 mi WSW 10.4 mph - N/A   Overcast
7:55 PM 71.6 °F - 64.2 °F 77% 29.93 in 10.0 mi WSW 10.4 mph - N/A   Overcast
8:15 PM 71.1 °F - 65.3 °F 82% 29.93 in 5.0 mi WSW 10.4 mph - N/A Rain Light Rain
8:35 PM 69.3 °F - 65.8 °F 89% 29.93 in 5.0 mi SW 6.9 mph - N/A Rain Rain
8:55 PM 68.9 °F - 66.0 °F 90% 29.94 in 4.0 mi SW 6.9 mph - N/A Rain Rain
9:15 PM 68.5 °F - 66.2 °F 92% 29.94 in 3.0 mi SW 11.5 mph - 0.06 in Rain Heavy Rain
9:35 PM 68.5 °F - 66.6 °F 93% 29.93 in 3.0 mi SSW 11.5 mph - 0.22 in Rain Heavy Rain
9:55 PM 68.5 °F - 66.2 °F 92% 29.93 in 5.0 mi SSW 11.5 mph - 0.24 in Rain Light Rain
10:15 PM 64.8 °F - 62.2 °F 92% 29.96 in 10.0 mi WNW 13.8 mph - N/A   Light Drizzle
10:35 PM 63.5 °F - 61.0 °F 91% 29.96 in 5.0 mi WNW 11.5 mph - 0.03 in Rain Rain
10:55 PM 62.6 °F - 60.3 °F 92% 29.97 in 4.0 mi WNW 11.5 mph - 0.08 in Rain Rain
11:15 PM 61.3 °F - 59.4 °F 93% 29.98 in 4.0 mi WNW 11.5 mph - 0.03 in Rain Rain
11:35 PM 60.8 °F - 59.0 °F 94% 29.98 in 4.0 mi WNW 8.1 mph - 0.05 in   Drizzle
11:55 PM 60.4 °F - 59.0 °F 95% 29.98 in 4.0 mi WNW 8.1 mph - 0.10 in Rain Heavy Rain